sat.trackr.live / text

‹ back to catalog

STARLINK-5124

NORAD 54011 · 2022-125AZ

PAYLOAD ACTIVE UNKNOWN

§ Identity

Operator
Country
US
Launch date
2022-10-05
Launch site
AFWTR
Launch vehicle
Mass (kg)
RCS (m²)

Purposes: comms

External: N2YO · Heavens-Above · Gunter

§ Orbital elements

Epoch: 2026-09-20T22:34:01.835328Z

Period
93.85 min
Inclination
53.1621°
Eccentricity
0.0001266
Mean motion
15.34390277 rev/d
Perigee alt
461.9 km
Apogee alt
463.6 km
Semi-major
6,840.9 km
B*
1.7152e-5
RAAN
35.4197°
Arg perigee
81.5082°
Mean anomaly
278.6064°
Rev number
21,924

§ Raw data

STARLINK-51241 54011U 22125AZ  26263.94029902  .00000203  00000+0  17152-4 0  99912 54011  53.1621  35.4197 0001266  81.5082 278.6064 15.34390277219241

JSON: /api/v1/satellites/54011 · /tle

For live sub-satellite position, see the globe view (requires WebGL).

§ Visibility from observer

Set your observer location to see the next 7 days of passes ≥ 10°. The values pass through the URL so the page stays shareable.

No JS? Fill the form by hand. The geolocation button needs JavaScript.